Wind_Speed
33 34 36 37 38 39 39 39 39 39 39 39 39 38 36 36 37 37 38 39 39 38 39 39 40 42 45 48 51 54 56 59 60 61 61 62 64 66 65 66 67 67 66 64
34 35 37 38 38 39 39 39 39 37 38 38 38 36 34 34 36 38 37 37 37 36 37 37 38 39 41 43 47 50 52 56 58 60 61 61 62 65 65 66 68 69 67 66
34 36 37 38 38 39 39 39 39 39 37 36 37 35 33 33 36 37 36 36 36 35 35 34 35 37 38 40 43 46 47 52 55 57 59 60 62 64 66 66 67 69 68 68
36 37 38 39 39 39 38 38 39 39 39 37 37 38 34 35 36 36 35 34 33 33 32 31 31 32 35 38 41 43 46 48 51 53 57 58 60 62 64 64 65 67 69 69
36 37 38 39 39 39 39 39 39 40 39 38 37 39 36 36 36 34 34 32 31 31 30 29 31 32 33 35 39 41 43 45 47 50 52 54 58 60 61 61 65 67 68 68
37 38 38 39 39 39 39 40 40 40 39 39 37 38 36 36 37 35 34 32 31 31 30 30 31 33 34 36 36 39 42 43 45 47 49 53 57 58 58 58 60 64 66 67
36 37 38 39 39 38 39 40 40 41 40 39 37 37 36 36 36 36 35 34 32 30 30 30 31 32 34 35 35 36 39 41 42 45 47 52 55 56 56 56 57 62 63 63
38 38 37 38 39 39 39 39 39 41 41 40 38 36 35 35 35 35 34 33 32 31 30 29 30 31 31 32 33 35 38 40 41 45 48 50 54 52 51 54 56 59 59 61
39 39 39 39 39 39 39 39 39 40 41 41 40 38 34 34 34 34 34 32 32 31 29 28 28 29 30 31 31 32 35 39 40 43 48 49 50 50 49 52 53 54 55 58
39 40 39 39 40 39 39 39 39 39 42 43 43 40 36 35 34 34 33 32 31 31 28 27 27 28 27 28 29 30 32 35 40 43 45 49 48 47 48 50 49 50 52 56
40 41 41 40 40 40 40 39 39 40 41 43 45 40 38 37 36 34 32 32 31 31 29 27 27 27 26 26 28 30 32 34 37 41 44 45 46 46 47 49 50 51 50 53
40 41 41 41 41 41 41 40 39 40 41 42 44 42 38 38 37 35 33 32 32 31 29 27 28 27 26 26 28 30 32 34 36 39 42 44 44 45 46 46 48 48 48 51
41 41 42 42 42 42 42 41 40 40 41 42 42 42 39 37 37 35 34 32 32 31 28 27 27 26 25 25 27 30 31 33 34 36 39 42 43 46 47 47 46 46 47 49
41 42 42 42 42 42 42 41 40 41 41 42 41 40 37 36 36 35 34 32 32 30 29 28 27 26 25 26 28 29 31 33 34 34 37 42 43 44 48 48 47 44 44 45
42 43 43 43 42 42 41 41 40 41 41 42 40 39 38 36 36 35 33 32 31 29 29 28 27 26 25 26 27 29 31 33 34 35 36 39 42 44 44 47 46 44 43 44
44 44 44 44 44 43 43 41 41 40 40 40 39 38 37 37 36 35 33 32 31 29 28 27 27 26 26 27 27 29 32 33 33 34 36 38 41 43 44 43 44 43 44 44
45 46 46 46 44 45 43 42 40 39 38 39 39 38 37 36 36 35 33 31 29 28 28 26 25 25 26 28 28 29 31 33 33 34 36 39 41 42 43 43 41 44 45 45
46 46 46 46 45 45 44 42 40 39 38 38 38 37 37 37 36 34 33 31 29 28 28 27 25 25 26 28 29 30 31 32 33 34 36 39 41 42 41 40 40 41 44 43
45 45 45 45 46 47 43 41 41 40 38 37 38 38 38 36 36 34 33 31 29 28 27 27 26 25 26 27 29 30 31 32 33 34 35 39 41 42 41 40 40 41 43 42
45 45 46 46 47 47 43 41 41 41 39 37 37 38 37 36 35 33 32 32 30 29 27 26 25 25 26 26 27 29 30 31 32 33 35 38 41 42 42 40 40 41 43 43
45 45 45 45 46 45 42 41 40 41 40 38 37 37 36 36 35 33 32 31 30 30 28 26 26 25 25 27 28 29 28 30 31 32 33 35 38 40 41 42 40 41 43 43
44 44 43 43 45 43 41 41 41 41 40 39 39 37 36 35 34 33 32 31 30 29 28 26 26 25 25 27 28 29 28 30 32 33 33 33 35 38 40 42 42 42 42 41
43 42 42 43 43 41 41 41 41 41 40 39 38 37 36 35 34 33 33 31 30 29 28 27 26 25 25 26 27 28 29 29 31 33 34 33 33 35 37 40 42 42 42 40
43 42 43 43 41 40 41 41 41 40 40 39 37 36 35 35 34 33 32 31 30 29 28 27 26 25 24 25 27 28 30 30 30 32 33 34 33 34 35 38 41 42 41 40
42 42 43 43 41 40 39 40 39 39 38 37 36 35 35 34 33 32 31 30 29 28 27 26 25 24 24 25 26 28 30 31 32 32 33 34 34 34 34 36 40 41 40 39
39 41 42 42 40 41 39 37 37 37 36 36 35 34 34 33 32 31 30 29 28 28 27 26 25 24 24 25 26 28 29 31 32 34 34 35 35 35 35 36 39 39 39 39
Wind_Direction
316 318 319 319 318 317 315 314 313 311 308 307 305 305 305 300 297 297 292 287 283 280 275 270 264 258 254 250 247 244 243 240 237 235 234 233 233 231 229 228 227 226 227 228
317 319 319 320 320 319 318 317 316 313 310 309 307 307 308 303 301 299 295 291 286 283 278 273 266 259 255 251 247 245 243 238 235 234 233 233 232 230 229 228 227 226 225 226
320 321 321 321 321 319 319 318 318 316 313 311 309 307 308 306 305 301 297 293 288 286 283 276 265 258 254 251 249 245 241 238 235 235 233 232 231 228 227 226 226 225 224 225
320 322 322 322 322 319 319 319 318 317 315 313 312 310 309 308 307 305 300 295 289 285 284 278 265 260 257 254 250 245 241 239 236 234 231 230 229 227 227 225 225 225 223 223
319 321 321 322 322 320 318 319 318 317 315 313 312 310 313 312 311 307 303 297 291 288 285 279 269 264 260 256 252 246 241 239 234 232 231 230 226 225 224 223 225 224 222 222
317 319 320 322 322 321 319 318 317 316 314 314 313 311 314 313 312 310 305 300 295 291 284 279 272 265 261 258 256 250 241 238 233 232 232 228 223 223 221 221 222 221 221 221
315 318 320 321 321 320 318 317 316 314 314 314 314 312 314 314 313 311 307 301 298 294 286 278 273 267 262 260 258 252 242 237 233 232 230 225 222 222 222 222 221 220 220 221
314 317 319 320 320 319 317 317 316 315 314 314 315 314 314 312 312 311 308 303 299 295 288 281 273 267 263 260 258 251 242 236 233 230 226 222 220 221 223 221 220 220 221 220
313 315 317 319 320 319 317 316 315 313 312 312 314 314 312 312 310 307 306 304 299 296 290 284 276 270 264 258 255 251 243 238 234 229 223 222 223 224 222 219 219 221 220 219
311 313 315 317 317 318 317 316 315 314 313 312 313 315 315 313 310 306 304 302 299 295 292 287 279 272 265 258 254 251 246 239 234 230 224 222 220 220 221 218 219 222 221 219
310 311 313 314 316 317 317 315 313 311 311 311 311 314 315 314 311 306 302 301 298 296 292 287 279 271 267 261 255 251 244 238 233 229 227 224 223 221 221 219 219 220 220 219
308 309 311 312 314 315 316 316 312 309 309 309 309 312 315 312 309 306 302 300 298 297 293 287 279 271 265 261 254 248 242 237 233 231 229 227 224 222 221 220 219 219 219 219
306 308 309 311 312 313 314 315 313 309 306 306 307 311 314 311 308 305 302 299 297 296 293 287 278 267 263 258 250 244 241 238 233 229 228 225 223 221 220 219 217 216 217 219
303 304 306 308 310 311 311 312 311 308 306 305 307 309 311 309 306 304 301 299 297 296 292 285 277 268 263 257 249 243 241 237 233 229 227 224 222 220 220 218 217 215 216 217
301 302 304 306 307 307 308 309 308 307 307 305 307 306 308 308 305 303 301 298 296 295 292 284 275 268 261 256 250 244 239 235 233 230 227 223 219 218 218 217 217 217 218 217
299 301 302 303 305 305 306 307 307 306 307 305 304 304 305 305 304 303 302 298 295 292 290 285 276 267 259 254 250 245 239 237 234 231 226 221 218 216 216 215 218 218 219 220
297 299 301 302 303 303 305 309 308 306 306 305 304 305 304 303 302 302 302 298 293 291 289 285 278 266 259 254 250 245 241 239 236 231 225 222 220 218 217 217 219 218 218 219
295 298 300 301 301 301 307 307 306 305 305 305 304 304 303 302 301 301 300 297 292 290 288 286 280 269 260 254 249 245 242 238 235 233 226 221 220 218 217 218 218 217 217 217
293 295 297 298 299 301 305 306 305 304 304 304 304 303 302 301 300 298 296 295 291 288 285 283 279 270 262 255 249 246 242 238 235 233 228 224 220 219 219 219 219 218 217 215
290 292 294 296 297 301 305 304 303 302 303 304 303 303 301 300 299 298 295 293 289 286 284 280 277 270 263 255 250 244 241 237 235 231 228 224 223 222 221 219 219 218 217 215
289 290 293 295 296 299 304 302 302 302 304 304 303 303 301 300 299 298 295 292 289 284 282 279 275 270 263 254 247 242 239 233 231 228 225 224 223 223 222 220 218 218 217 214
287 290 292 293 294 298 300 299 300 301 301 302 302 302 301 300 299 297 295 292 289 285 279 275 272 269 263 253 245 241 238 233 231 228 226 222 221 221 221 221 219 218 215 212
286 290 291 291 294 296 297 297 297 298 299 300 300 300 300 299 298 295 293 290 286 284 279 274 270 266 261 252 245 239 236 233 232 229 226 224 223 221 220 219 217 216 214 212
287 289 290 291 293 294 294 295 295 296 297 298 299 298 298 298 297 294 292 289 285 282 279 273 268 264 256 250 245 238 234 231 228 226 226 225 221 216 217 216 214 212 212 213
287 288 289 290 292 291 291 292 292 294 296 297 297 297 297 297 296 293 292 289 285 282 277 271 266 259 253 249 244 239 235 232 228 224 223 221 220 217 215 214 211 210 209 210
288 288 288 289 290 290 291 292 291 293 295 295 296 295 295 295 295 293 292 290 286 281 275 268 261 256 253 249 243 239 236 232 228 225 223 222 220 219 217 214 210 209 209 209
Height
5701 5697 5690 5684 5677 5670 5664 5658 5652 5647 5640 5634 5630 5625 5621 5615 5610 5606 5601 5597 5594 5592 5591 5590 5589 5590 5592 5595 5598 5602 5606 5612 5619 5626 5633 5641 5650 5659 5668 5677 5687 5696 5705 5714
5694 5689 5682 5675 5669 5662 5655 5649 5644 5639 5632 5625 5622 5618 5613 5607 5602 5597 5592 5587 5584 5581 5580 5578 5578 5578 5579 5582 5584 5587 5591 5597 5603 5610 5618 5625 5634 5642 5652 5662 5671 5681 5690 5699
5686 5682 5674 5668 5661 5655 5648 5641 5635 5629 5624 5619 5613 5611 5607 5601 5594 5589 5583 5579 5575 5572 5569 5568 5567 5567 5568 5569 5572 5574 5578 5583 5588 5594 5601 5609 5616 5625 5635 5644 5655 5666 5675 5685
5678 5673 5667 5660 5654 5647 5641 5635 5628 5621 5615 5611 5606 5600 5601 5594 5587 5581 5576 5571 5568 5564 5561 5559 5558 5558 5559 5559 5560 5562 5565 5569 5574 5579 5585 5593 5600 5610 5620 5630 5641 5650 5660 5670
5671 5665 5659 5653 5647 5639 5633 5627 5621 5614 5608 5604 5599 5593 5593 5586 5580 5575 5569 5564 5560 5557 5554 5551 5550 5550 5550 5550 5550 5551 5554 5557 5561 5566 5572 5579 5587 5596 5606 5616 5626 5635 5646 5656
5664 5658 5652 5646 5639 5632 5626 5620 5614 5608 5602 5598 5592 5586 5583 5578 5572 5567 5562 5557 5553 5549 5546 5543 5542 5541 5541 5541 5540 5541 5543 5546 5550 5555 5560 5567 5575 5584 5593 5602 5611 5622 5633 5644
5656 5651 5644 5638 5632 5626 5619 5613 5606 5600 5594 5591 5585 5579 5576 5571 5564 5559 5554 5549 5545 5541 5538 5535 5533 5532 5531 5531 5531 5532 5533 5537 5541 5545 5550 5557 5565 5574 5582 5590 5600 5611 5621 5632
5647 5643 5637 5631 5625 5618 5612 5606 5600 5592 5586 5582 5578 5573 5571 5564 5558 5552 5547 5542 5538 5534 5531 5528 5525 5524 5523 5523 5523 5523 5525 5529 5533 5537 5542 5548 5556 5564 5573 5581 5590 5600 5610 5622
5637 5634 5629 5623 5617 5611 5604 5598 5593 5585 5578 5573 5570 5566 5563 5558 5552 5546 5541 5536 5532 5528 5524 5521 5519 5517 5516 5516 5516 5516 5518 5521 5525 5529 5535 5542 5549 5557 5564 5573 5582 5590 5600 5612
5629 5625 5622 5616 5610 5604 5597 5591 5584 5577 5570 5563 5560 5557 5555 5550 5544 5539 5534 5529 5525 5521 5518 5515 5512 5510 5509 5509 5509 5509 5511 5514 5518 5522 5527 5535 5542 5550 5557 5566 5575 5583 5593 5602
5620 5616 5613 5607 5602 5596 5591 5585 5577 5570 5564 5556 5550 5552 5548 5542 5536 5531 5527 5522 5518 5515 5511 5508 5506 5504 5503 5503 5503 5503 5505 5508 5512 5516 5521 5527 5534 5542 5550 5557 5566 5575 5584 5594
5611 5607 5603 5599 5594 5588 5582 5577 5570 5564 5558 5550 5542 5544 5542 5535 5528 5523 5519 5515 5511 5508 5505 5502 5499 5497 5497 5496 5496 5497 5499 5502 5506 5510 5515 5520 5527 5535 5543 5551 5559 5568 5577 5587
5602 5598 5593 5590 5587 5580 5573 5568 5562 5555 5549 5543 5536 5536 5533 5526 5520 5515 5511 5507 5503 5501 5498 5495 5493 5491 5491 5490 5490 5492 5494 5497 5500 5505 5510 5515 5522 5529 5536 5544 5553 5562 5570 5579
5592 5588 5585 5581 5576 5570 5565 5560 5554 5547 5540 5535 5530 5526 5525 5519 5513 5508 5503 5499 5496 5493 5490 5488 5486 5485 5484 5484 5485 5486 5488 5491 5495 5500 5504 5510 5516 5523 5530 5538 5547 5555 5563 5571
5581 5578 5575 5571 5566 5561 5556 5552 5545 5538 5532 5526 5523 5518 5515 5510 5505 5501 5496 5492 5488 5486 5483 5481 5479 5478 5478 5478 5479 5480 5483 5486 5490 5494 5498 5504 5510 5517 5524 5531 5539 5547 5555 5564
5570 5567 5563 5560 5556 5550 5546 5543 5537 5530 5524 5518 5513 5510 5508 5502 5497 5492 5489 5484 5481 5478 5476 5474 5472 5471 5471 5471 5472 5474 5477 5480 5484 5487 5492 5497 5503 5510 5518 5525 5532 5540 5548 5556
5560 5555 5551 5548 5545 5538 5535 5534 5527 5521 5516 5510 5505 5502 5498 5493 5489 5484 5481 5477 5473 5471 5468 5467 5465 5464 5464 5465 5466 5468 5471 5474 5477 5481 5485 5490 5497 5504 5511 5519 5526 5533 5541 5550
5549 5544 5539 5535 5533 5527 5529 5523 5517 5511 5507 5502 5496 5492 5488 5484 5480 5476 5472 5468 5466 5463 5461 5459 5458 5457 5457 5458 5459 5461 5464 5467 5470 5474 5479 5484 5490 5497 5504 5512 5519 5526 5534 5543
5539 5533 5528 5523 5518 5515 5518 5513 5506 5500 5498 5494 5488 5483 5479 5475 5471 5468 5464 5460 5458 5456 5453 5452 5451 5450 5450 5451 5452 5454 5457 5460 5464 5468 5473 5478 5484 5491 5498 5505 5512 5519 5527 5535
5527 5522 5518 5512 5506 5504 5507 5502 5495 5490 5488 5486 5479 5474 5470 5465 5462 5460 5456 5452 5450 5448 5446 5444 5443 5443 5443 5444 5445 5447 5450 5453 5457 5461 5466 5472 5478 5485 5492 5499 5505 5512 5520 5528
5515 5510 5507 5501 5494 5493 5496 5490 5484 5481 5479 5474 5469 5464 5460 5457 5453 5450 5447 5444 5441 5439 5438 5437 5436 5436 5436 5436 5438 5441 5443 5446 5450 5455 5460 5465 5472 5478 5485 5492 5498 5505 5513 5522
5502 5499 5496 5491 5485 5486 5484 5478 5475 5471 5467 5463 5459 5455 5451 5448 5444 5441 5438 5435 5432 5431 5429 5428 5428 5428 5428 5429 5431 5434 5436 5440 5443 5448 5452 5459 5465 5471 5478 5484 5491 5499 5506 5515
5491 5489 5484 5481 5480 5477 5472 5468 5464 5460 5457 5453 5449 5446 5442 5438 5435 5432 5429 5426 5424 5422 5421 5420 5420 5420 5420 5421 5423 5427 5430 5433 5437 5441 5447 5453 5458 5464 5471 5477 5484 5492 5500 5508
5480 5477 5472 5469 5469 5465 5461 5457 5453 5450 5446 5443 5439 5436 5432 5429 5426 5423 5420 5417 5415 5413 5412 5412 5412 5412 5413 5414 5416 5419 5423 5426 5431 5435 5441 5446 5452 5458 5464 5471 5478 5486 5493 5502
5468 5464 5460 5457 5457 5453 5450 5446 5443 5439 5436 5433 5430 5426 5423 5419 5416 5413 5411 5408 5406 5405 5404 5403 5403 5404 5405 5407 5409 5412 5415 5420 5424 5429 5434 5440 5446 5452 5458 5464 5472 5479 5487 5495
5457 5452 5448 5445 5444 5440 5439 5436 5432 5429 5426 5423 5420 5417 5413 5410 5408 5405 5402 5400 5398 5396 5395 5395 5395 5396 5398 5399 5402 5404 5408 5412 5417 5422 5427 5433 5439 5445 5452 5458 5465 5472 5480 5488